• In Deutschland
  • Länderverzeichnis
  • Für 7 Tage
  • Wassertemperatur
  • Satellitenkarten
  • Wetterkarte
  • Widgets
  • user-avatar
    Anmelden

    Stündliche Wetter Köln

    Heute, 16 Januar, Dienstag

    Zeit Temperatur Niederschläge Wind Luftdruck Luftfeuchtigkeit
    00:00 +6°C° 0 mm 5 m/S 741 mmHg 87%
    01:00 +6°C° 0,3 mm 5 m/S 741 mmHg 87%
    02:00 +6°C° 0,3 mm 5 m/S 740 mmHg 86%
    03:00 +5°C° 0,3 mm 5 m/S 740 mmHg 86%
    04:00 +5°C° 0,3 mm 5 m/S 740 mmHg 85%
    05:00 +5°C° 0,3 mm 5 m/S 739 mmHg 85%
    06:00 +5°C° 0,3 mm 5 m/S 739 mmHg 84%
    07:00 +4°C° 0,6 mm 6 m/S 739 mmHg 83%
    08:00 +4°C° 0,6 mm 6 m/S 739 mmHg 82%
    09:00 +4°C° 0,6 mm 7 m/S 739 mmHg 81%
    10:00 +4°C° 0,4 mm 8 m/S 739 mmHg 73%
    11:00 +4°C° 0,4 mm 8 m/S 740 mmHg 66%
    12:00 +3°C° 0,4 mm 9 m/S 740 mmHg 59%
    13:00 +4°C° 0,1 mm 8 m/S 740 mmHg 59%
    14:00 +4°C° 0,1 mm 7 m/S 741 mmHg 59%
    15:00 +3°C° 0,1 mm 6 m/S 741 mmHg 59%
    16:00 +3°C° 0 mm 6 m/S 741 mmHg 63%
    17:00 +2°C° 0 mm 5 m/S 741 mmHg 68%
    18:00 +2°C° 0 mm 5 m/S 740 mmHg 72%
    19:00 +2°C° 0,1 mm 5 m/S 740 mmHg 73%
    20:00 +2°C° 0,1 mm 5 m/S 740 mmHg 74%
    21:00 +2°C° 0,1 mm 5 m/S 740 mmHg 76%
    22:00 +1°C° 0,1 mm 5 m/S 740 mmHg 75%
    23:00 +1°C° 0,1 mm 5 m/S 740 mmHg 74%

    Morgen, 17 Januar, Mittwoch

    Zeit Temperatur Niederschläge Wind Luftdruck Luftfeuchtigkeit
    00:00 +1°C° 0,1 mm 5 m/S 740 mmHg 73%
    01:00 +1°C° 0,2 mm 6 m/S 740 mmHg 72%
    02:00 +1°C° 0,2 mm 6 m/S 740 mmHg 71%
    03:00 -1°C° 0,2 mm 6 m/S 741 mmHg 70%
    04:00 -1°C° 0,3 mm 6 m/S 741 mmHg 69%
    05:00 -1°C° 0,3 mm 7 m/S 742 mmHg 68%
    06:00 -2°C° 0,3 mm 7 m/S 743 mmHg 68%
    07:00 -1°C° 0,1 mm 7 m/S 743 mmHg 67%
    08:00 -1°C° 0,1 mm 7 m/S 744 mmHg 67%
    09:00 -1°C° 0,1 mm 7 m/S 745 mmHg 67%
    10:00 -1°C° 0,1 mm 7 m/S 745 mmHg 67%
    11:00 0°C° 0,1 mm 8 m/S 746 mmHg 68%
    12:00 +1°C° 0,1 mm 8 m/S 746 mmHg 68%
    13:00 +1°C° 0,4 mm 8 m/S 746 mmHg 67%
    14:00 +1°C° 0,4 mm 8 m/S 747 mmHg 65%
    15:00 +1°C° 0,4 mm 8 m/S 748 mmHg 64%
    16:00 +1°C° 0,2 mm 8 m/S 748 mmHg 68%
    17:00 +1°C° 0,2 mm 8 m/S 749 mmHg 71%
    18:00 0°C° 0,2 mm 7 m/S 750 mmHg 75%
    19:00 0°C° 0,1 mm 7 m/S 750 mmHg 75%
    20:00 +1°C° 0,1 mm 6 m/S 751 mmHg 75%
    21:00 +1°C° 0,1 mm 6 m/S 751 mmHg 75%
    22:00 +1°C° 0,1 mm 6 m/S 751 mmHg 75%
    23:00 +1°C° 0,1 mm 5 m/S 751 mmHg 75%

    übermorgen, 18 Januar, Donnerstag

    Zeit Temperatur Niederschläge Wind Luftdruck Luftfeuchtigkeit
    00:00 0°C° 0,1 mm 5 m/S 751 mmHg 75%
    01:00 +1°C° 1,1 mm 5 m/S 749 mmHg 79%
    02:00 +1°C° 1,1 mm 5 m/S 747 mmHg 83%
    03:00 +1°C° 1,1 mm 6 m/S 746 mmHg 86%
    04:00 +3°C° 1,4 mm 7 m/S 744 mmHg 86%
    05:00 +5°C° 1,4 mm 8 m/S 743 mmHg 85%
    06:00 +6°C° 1,4 mm 9 m/S 741 mmHg 85%
    07:00 +6°C° 0,2 mm 9 m/S 741 mmHg 83%
    08:00 +7°C° 0,2 mm 9 m/S 741 mmHg 81%
    09:00 +7°C° 0,2 mm 9 m/S 741 mmHg 79%
    10:00 +6°C° 0,1 mm 9 m/S 741 mmHg 75%
    11:00 +6°C° 0,1 mm 9 m/S 742 mmHg 72%
    12:00 +5°C° 0,1 mm 9 m/S 742 mmHg 68%
    13:00 +5°C° 0 mm 8 m/S 743 mmHg 70%
    14:00 +4°C° 0 mm 6 m/S 744 mmHg 72%
    15:00 +5°C° 0 mm 5 m/S 744 mmHg 73%
    16:00 +4°C° 0 mm 4 m/S 744 mmHg 76%
    17:00 +4°C° 0 mm 4 m/S 744 mmHg 79%
    18:00 +3°C° 0 mm 3 m/S 744 mmHg 82%
    19:00 +3°C° 0,2 mm 3 m/S 744 mmHg 83%
    20:00 +4°C° 0,2 mm 3 m/S 744 mmHg 85%
    21:00 +4°C° 0,2 mm 4 m/S 744 mmHg 86%
    22:00 +4°C° 0,4 mm 4 m/S 745 mmHg 85%
    23:00 +4°C° 0,4 mm 4 m/S 745 mmHg 85%

    19 Januar, Freitag

    Zeit Temperatur Niederschläge Wind Luftdruck Luftfeuchtigkeit
    00:00 +3°C° 0,4 mm 4 m/S 745 mmHg 84%
    01:00 +3°C° 0,3 mm 4 m/S 745 mmHg 84%
    02:00 +3°C° 0,3 mm 4 m/S 746 mmHg 84%
    03:00 +1°C° 0,3 mm 4 m/S 746 mmHg 84%
    04:00 +1°C° 0,1 mm 4 m/S 746 mmHg 85%
    05:00 +1°C° 0,1 mm 4 m/S 747 mmHg 86%
    06:00 0°C° 0,1 mm 4 m/S 747 mmHg 87%
    07:00 0°C° 0 mm 4 m/S 747 mmHg 85%
    08:00 0°C° 0 mm 4 m/S 748 mmHg 84%
    09:00 0°C° 0 mm 4 m/S 748 mmHg 83%
    10:00 +1°C° 0 mm 4 m/S 748 mmHg 79%
    11:00 +3°C° 0 mm 4 m/S 748 mmHg 74%
    12:00 +3°C° 0 mm 5 m/S 748 mmHg 70%
    13:00 +3°C° 0,1 mm 4 m/S 748 mmHg 71%
    14:00 +3°C° 0,1 mm 3 m/S 748 mmHg 73%
    15:00 +3°C° 0,1 mm 3 m/S 747 mmHg 74%
    16:00 +2°C° 0,1 mm 3 m/S 747 mmHg 77%
    17:00 +2°C° 0,1 mm 3 m/S 747 mmHg 80%
    18:00 +1°C° 0,1 mm 3 m/S 747 mmHg 83%
    19:00 +1°C° 0 mm 3 m/S 747 mmHg 84%
    20:00 0°C° 0 mm 3 m/S 747 mmHg 85%
    21:00 0°C° 0 mm 3 m/S 747 mmHg 86%
    22:00 +1°C° 0 mm 2 m/S 747 mmHg 86%
    23:00 -1°C° 0 mm 2 m/S 748 mmHg 87%

    20 Januar, Samstag

    Zeit Temperatur Niederschläge Wind Luftdruck Luftfeuchtigkeit
    00:00 -1°C° 0 mm 2 m/S 748 mmHg 87%
    01:00 -1°C° 0 mm 2 m/S 748 mmHg 87%
    02:00 -1°C° 0 mm 2 m/S 748 mmHg 87%
    03:00 -1°C° 0 mm 2 m/S 748 mmHg 87%
    04:00 -1°C° 0 mm 2 m/S 748 mmHg 88%
    05:00 -2°C° 0 mm 2 m/S 748 mmHg 88%
    06:00 -2°C° 0 mm 2 m/S 748 mmHg 88%
    07:00 -1°C° 0 mm 3 m/S 749 mmHg 86%
    08:00 -1°C° 0 mm 3 m/S 750 mmHg 84%
    09:00 0°C° 0 mm 3 m/S 750 mmHg 82%
    10:00 +1°C° 0 mm 3 m/S 750 mmHg 78%
    11:00 +1°C° 0 mm 3 m/S 751 mmHg 74%
    12:00 +2°C° 0 mm 3 m/S 751 mmHg 71%
    13:00 +2°C° 0 mm 3 m/S 751 mmHg 72%
    14:00 +3°C° 0 mm 2 m/S 751 mmHg 73%
    15:00 +3°C° 0 mm 2 m/S 751 mmHg 74%
    16:00 +2°C° 0 mm 2 m/S 752 mmHg 78%
    17:00 +1°C° 0 mm 2 m/S 752 mmHg 82%
    18:00 -1°C° 0 mm 2 m/S 753 mmHg 86%
    19:00 -1°C° 0 mm 2 m/S 753 mmHg 87%
    20:00 -1°C° 0 mm 2 m/S 754 mmHg 89%
    21:00 -1°C° 0 mm 2 m/S 754 mmHg 90%
    22:00 -1°C° 0 mm 2 m/S 754 mmHg 91%
    23:00 +1°C° 0 mm 1 m/S 755 mmHg 92%

    21 Januar, Sonntag

    Zeit Temperatur Niederschläge Wind Luftdruck Luftfeuchtigkeit
    00:00 +1°C° 0 mm 1 m/S 755 mmHg 93%
    01:00 +1°C° 0 mm 1 m/S 755 mmHg 93%
    02:00 +1°C° 0 mm 1 m/S 755 mmHg 93%
    03:00 +1°C° 0 mm 1 m/S 755 mmHg 93%
    04:00 +1°C° 0 mm 1 m/S 756 mmHg 93%
    05:00 +1°C° 0 mm 1 m/S 756 mmHg 93%
    06:00 +1°C° 0 mm 1 m/S 756 mmHg 93%
    07:00 +1°C° 0 mm 1 m/S 757 mmHg 91%
    08:00 +1°C° 0 mm 1 m/S 757 mmHg 89%
    09:00 +1°C° 0 mm 1 m/S 758 mmHg 87%
    10:00 +2°C° 0 mm 1 m/S 758 mmHg 83%
    11:00 +2°C° 0 mm 2 m/S 758 mmHg 79%
    12:00 +3°C° 0 mm 2 m/S 758 mmHg 75%
    13:00 +3°C° 0 mm 2 m/S 759 mmHg 76%
    14:00 +4°C° 0 mm 1 m/S 759 mmHg 77%
    15:00 +4°C° 0 mm 1 m/S 759 mmHg 78%
    16:00 +3°C° 0 mm 1 m/S 759 mmHg 81%
    17:00 +2°C° 0 mm 1 m/S 760 mmHg 85%
    18:00 +1°C° 0 mm 1 m/S 760 mmHg 88%
    19:00 +1°C° 0 mm 1 m/S 760 mmHg 89%
    20:00 +1°C° 0 mm 1 m/S 761 mmHg 89%
    21:00 0°C° 0 mm 1 m/S 761 mmHg 90%
    22:00 0°C° 0 mm 1 m/S 761 mmHg 90%
    23:00 0°C° 0 mm 1 m/S 761 mmHg 90%
    Mehr zeigen